Regional Weather Roundup
Issued by NWS

Home | Current Version | Previous Version | Text Only | Print | Product List | Glossary Off
Versions: 1 2 3 4 5 6 7 8 9 10 11 12 13 14 15 16 17 18 19 20 21 22 23 24 25 26 27 28 29 30 31 32 33 34 35 36 37 38 39 40 41 42 43 44 45 46 47 48

000
ASUS45 KBOU 220807
RWRCO

WEATHER ROUNDUP FOR COLORADO
NATIONAL WEATHER SERVICE DENVER/BOULDER CO
200 AM MDT TUE JUL 22 2014

NOTE: "FAIR" INDICATES FEW OR NO CLOUDS BELOW 12000 FEET WITH NO
SIGNIFICANT WEATHER AND/OR OBSTRUCTIONS TO VISIBILITY.

COZ001>005-013-030-031-220900-
...NORTHWEST COLORADO...

CITY           SKY/WX    TMP DP  RH WIND       PRES   REMARKS
CRAIG          CLEAR     48  44  86 CALM      30.30R
HAYDEN         PTCLDY    59  37  44 E13       30.32S
MEEKER         CLEAR     59  34  39 E8        30.32R
MOUNT WERNER   NOT AVBL
STEAMBOAT SPGS CLEAR     52  40  62 CALM      30.35S
WALDEN         PTCLDY    45  34  65 SE6       30.44S
$$

COZ006>008-011-220900-
...WEST CENTRAL VALLEYS...

CITY           SKY/WX    TMP DP  RH WIND       PRES   REMARKS
GRAND JUNCTION CLEAR     69  21  16 E9        30.18R
MONTROSE       CLEAR     68  34  28 SE12      30.30R
EAGLE          CLEAR     57  39  51 E3        30.38R
RIFLE          CLEAR     64  32  30 CALM      30.26R
DELTA          CLEAR     67  31  26 E9        30.25R
NUCLA          CLEAR     64  30  27 E12       30.33R
$$

COZ017>023-064>068-220900-
...SOUTHWEST COLORADO...

CITY           SKY/WX    TMP DP  RH WIND       PRES   REMARKS
DURANGO        CLEAR     60  36  40 CALM      30.34S
CORTEZ         CLEAR     55  37  50 E5        30.29S
PAGOSA SPRINGS CLEAR     57  43  59 NW5       30.43F
TELLURIDE      NOT AVBL
WOLF CREEK PAS NOT AVBL
$$

COZ009-010-012-014-032>034-037-058>063-220900-
...CENTRAL COLORADO...

CITY           SKY/WX    TMP DP  RH WIND       PRES   REMARKS
ASPEN          CLEAR     54  35  48 S3        30.44S
BUENA VISTA    CLEAR     52  36  53 NW6       30.47F
COPPER MTN     CLEAR     59  27  29 S12       30.79F
BERTHOUD PASS  FAIR      50  36  57 CALM      30.84F
COTTONWOOD PAS CLEAR     64  21  19 W6        30.62S
GUNNISON       CLEAR     50  37  62 CALM      30.50R
KREMMLING      CLEAR     50  37  62 CALM      30.44R
LEADVILLE      CLEAR     46  31  55 NE5       30.61F
MONARCH PASS   CLEAR     52  30  43 W10       30.89F
SALIDA         CLEAR    N/A N/A N/A CALM      30.51S
SUNLIGHT       CLEAR     59  19  21 CALM      30.69S
WILKERSON PASS PTCLDY    57  30  35 W3        30.75F
$$

COZ069>075-220900-
...SAN LUIS VALLEY/SANGRE DE CRISTO MOUNTAINS...

CITY           SKY/WX    TMP DP  RH WIND       PRES   REMARKS
ALAMOSA        PTCLDY    55  49  80 W6        30.42S
LA VETA PASS   MOCLDY    57  39  51 S3        30.63S
SAGUACHE       CLEAR     55  41  58 N14       30.47S
$$

COZ035-036-038>040-220900-
...NORTHERN COLORADO FRONT RANGE...

CITY           SKY/WX    TMP DP  RH WIND       PRES   REMARKS
DENVER INTL AP PTCLDY    71  46  40 SW13      30.19S
DMNS CITY PARK   N/A     68  47  48 S3        30.20S
AURORA         PTCLDY    67  47  48 S9        30.23S
FRONT RANGE AP NOT AVBL
ERIE MUNI ARPT CLEAR     66  47  50 CALM      30.18F
BOULDER MUN AP CLEAR     70  43  37 W6        30.20F
CENTENNIAL     CLEAR     69  42  37 SW8       30.24S
BROOMFIELD     CLEAR     72  41  33 W9        30.22F
FORT COLLINS   CLEAR     72  48  43 W6        30.19S
LONGMONT       CLEAR     67  46  47 W8        30.20F
$$

COZ041-046-047-076>085-087-088-220900-
...PIKES PEAK/PALMER DIVIDE AND SOUTHERN FOOTHILLS...

CITY           SKY/WX    TMP DP  RH WIND       PRES   REMARKS
COLO. SPRINGS  PTCLDY    62  49  62 N6        30.28F
A. F. ACADEMY  CLEAR     57  46  66 N10       30.31S
ELLICOTT       CLEAR     66  52  60 SE10      30.27S
FALCON         CLEAR     64  45  50 CALM      30.34S
FORT CARSON    CLEAR     64  46  52 E15G22    30.25S
LIMON          CLEAR     63  52  67 SE12      30.24R
MONUMENT HILL  CLEAR     59  43  55 SW7       30.33S
TRINIDAD       PTCLDY    67  51  56 W9        30.24S
$$

COZ042>045-048>051-090-091-220900-
...NORTHEAST COLORADO...

CITY           SKY/WX    TMP DP  RH WIND       PRES   REMARKS
GREELEY ARPT   CLEAR     63  52  67 W7        30.16R
AKRON          MOCLDY    76  50  40 NE15      30.17F
BURLINGTON     CLEAR     70  59  68 SW14G23   30.13F
WRAY             N/A     73  60  63 W15       30.13R
STERLING       MOCLDY    86  50  28 SE14      30.06S
HOLYOKE        PTCLDY    73  61  64 SW7       30.09S
FORT MORGAN    MOCLDY    70  50  48 S3        30.13S
$$

COZ086-089-092>099-220900-
...SOUTHEAST COLORADO...

CITY           SKY/WX    TMP DP  RH WIND       PRES   REMARKS
PUEBLO         PTCLDY    67  54  63 NE5       30.16R
LA JUNTA       CLEAR     74  59  59 S6        30.14F
LAMAR          PTCLDY    73  58  59 SW14      30.07F
SPRINGFIELD      N/A     66  61  84 SW12      30.16F
$$



USA.gov is the U.S. government's official web portal to all federal, state and local government web resources and services.